Regional Weather Roundup
Issued by NWS

Home | Current Version | Previous Version | Text Only | Print | Product List | Glossary On
Versions: 1 2 3 4 5 6 7 8 9 10 11 12 13 14 15 16 17 18 19 20 21 22 23 24 25 26 27 28 29 30 31 32 33 34 35 36 37 38 39 40 41 42 43 44 45 46 47 48 49 50
039
ASUS42 KTBW 010216
RWRFL
FLORIDA REGIONAL WEATHER ROUNDUP
NATIONAL WEATHER SERVICE TAMPA BAY RUSKIN FL
1000 PM EDT FRI SEP 30 2016

NOTE: "FAIR" INDICATES FEW OR NO CLOUDS BELOW 12,000 FEET WITH NO
SIGNIFICANT WEATHER AND/OR OBSTRUCTIONS TO VISIBILITY.

FLZ001>010-012>015-112-114-115-010300-
PANHANDLE FLORIDA

CITY           SKY/WX    TMP DP  RH WIND       PRES   REMARKS
PENSACOLA      CLEAR     69  56  62 N3        30.04R
PENSACOLA NAS  CLEAR     63  57  81 N3        30.04R
MILTON NAS     CLEAR     61  58  90 CALM      30.05R
CRESTVIEW      CLEAR     65  56  72 N3        30.06R
DUKE FIELD     CLEAR     63  55  75 N3        30.05R
VALPARAISO     CLEAR     68  55  61 NW5       30.04R
MARY ESTHER    CLEAR     65  56  71 N7        30.03R
TRI COUNTY     FAIR      62  59  90 CALM      30.06R
PANAMA CITY    FAIR      64  55  72 NW3       30.03R
TYNDALL AFB    CLEAR     71  59  64 E3        30.03R
APALACHICOLA   CLEAR     66  60  81 NW3       30.02R

STATION/POSITION SKY/WX   TEMP    WIND        PRES    WAVE   SWELL
                          AIR SEA DIR/SP/G            HT/PER HT/PER
                          (F)     (DEG/KT/KT) (MB)    (FT/S) (FT/S)
30.1N   87.6W              77 84  360/  8/ 12 1017.4R   1
29.2N   88.2W              76 84  350/  6/  8 1016.9R
28.8N   86.0W              77 84              1016.9    2/ 4   2/ 4
PANAMA CITY BEAC           73 83   10/  4/  5 1017.0R
TOWER C                    77     310/  7/  8 1017.4R
28.5N   84.5W              80 84  350/  8/ 10 1016.7R   1/ 5   2/ 5

$$
FLZ011-016>038-118-127-128-134-139-239-010300-
NORTH FLORIDA

CITY           SKY/WX    TMP DP  RH WIND       PRES   REMARKS
MARIANNA       CLEAR     65  58  78 CALM      30.03R
TALLAHASSEE    CLEAR     64  59  83 CALM      30.03R
PERRY          CLEAR     63  58  83 CALM      30.03R
CROSS CITY     CLEAR     66  63  88 CALM      30.03R
LAKE CITY      FAIR      68  63  83 CALM      30.03R
GAINESVILLE    PTCLDY    76  63  64 NW6       30.02R
WILLISTON      CLEAR     77  66  69 CALM      30.03R
PALATKA        CLOUDY    77  73  88 S3        30.03R FOG
MAYPORT NAS    PTCLDY    80  74  81 SW5       30.01R
JACKSONVILLE   PTCLDY    72  68  87 CALM      30.01R
JAX NAS        PTCLDY    86  63  45 NW3       30.02R
FERNANDINA BEA FAIR      81  73  78 CALM      30.00S
ST AUGUSTINE   MOCLDY    80  75  84 S5        30.02R
PALM COAST     FAIR     N/A N/A N/A MISG      30.03R

STATION/POSITION SKY/WX   TEMP    WIND        PRES    WAVE   SWELL
                          AIR SEA DIR/SP/G            HT/PER HT/PER
                          (F)     (DEG/KT/KT) (MB)    (FT/S) (FT/S)
SHELL POINT                77     280/  4/  7 1014.8
KEATON BEACH               69      50/  2/  3 1016.6R
CEDAR KEY                  76     360/  3/  4 1017.2R
FERNANDINA                 81 84  120/  2/  3 1016.0R
30.7N   81.3W                 83                N/A     2/11
MAYPORT                    81 83  180/  3/  4 1016.3R
31.4N   80.9W              81 82  160/  8/ 10 1016.2R   2/ 5   2/ 5
ST AUGUSTINE               81 84  170/  8/ 10 1017.1R

$$
FLZ040-043>046-052-053-057-058-063-144-010300-
INTERIOR CENTRAL FLORIDA

CITY           SKY/WX    TMP DP  RH WIND       PRES   REMARKS
OCALA          MOCLDY    77  64  65 NW5       30.03R
THE VILLAGES     N/A     77  77 100 CALM      29.93R
LEESBURG       LGT RAIN  78  73  84 S3        30.04R
SANFORD        CLOUDY    75  70  84 SE17      30.05R
ORLANDO EXEC   MOCLDY    75  73  93 E15       30.05R
ORLANDO INTL   CLOUDY    74  70  87 E10       30.05R
KISSIMMEE      TSTM      75  73  94 S5        30.06R
WINTER HAVEN   CLOUDY    79  70  74 S3        30.05R
LAKELAND       PTCLDY    77  72  83 SE8       30.04R
BARTOW         CLOUDY    75  73  94 E6        30.04R
OKEECHOBEE     MOCLDY    73  72  94 W3        30.04R

$$
FLZ041-047-054-059-064-141-147-010300-
EAST CENTRAL FLORIDA

CITY           SKY/WX    TMP DP  RH WIND       PRES   REMARKS
DAYTONA BEACH  CLOUDY    74  70  87 S12       30.04R
DELAND         MOCLDY    75  72  88 SE10      30.04R
NEW SMYRNA BEA MOCLDY    73  70  88 S9        30.04R
CAPE CANAVERAL CLOUDY    75  71  89 NW8       30.05R
PATRICK AFB    MOCLDY    78  74  87 NW7       30.04R
MELBOURNE      MOCLDY    75  75 100 W7        30.04R
VERO BEACH     MOCLDY    76  71  85 SE5       30.05R
FT PIERCE      CLOUDY    76  72  87 SE5       30.04R

STATION/POSITION SKY/WX   TEMP    WIND        PRES    WAVE   SWELL
                          AIR SEA DIR/SP/G            HT/PER HT/PER
                          (F)     (DEG/KT/KT) (MB)    (FT/S) (FT/S)
28.5N   80.2W              81 84  260/ 12/ 16 1017.0R
TRIDENT PIER               78 85  290/  4/  6 1017.1R
27.5N   80.2W                 85                N/A     2/10

$$
FLZ050-056-061-142-242-148-248-149-249-151-251-155-255-
160-260-010300-
WEST CENTRAL FLORIDA

CITY           SKY/WX    TMP DP  RH WIND       PRES   REMARKS
CRYSTAL RIVER  CLOUDY    77  64  65 CALM      30.03R
INVERNESS      FAIR      73  70  88 CALM      30.03R
BROOKSVILLE    PTCLDY    76  69  79 NW3       30.03R
CLEARWATER AIR MOCLDY    79  72  78 NE3       30.02R
ST PETE CLEARW MOCLDY    81  73  76 N8        30.02R
TAMPA INTL     MOCLDY    80  75  84 VRB3      30.03R
TAMPA EXEC       N/A     77  73  88 CALM      30.04R
PLANT CITY     MOCLDY    81  77  89 CALM      30.06R
MACDILL AFB    MOCLDY    76  76 100 NE5       30.02R
PETER O KNIGHT MOCLDY    79  77  94 N3        30.02R
ST PETERSBURG  MOCLDY    81  75  82 NE7       30.01R
SARASOTA       MOCLDY    83  73  72 S9        30.00R
VENICE         FAIR      79  73  83 SE6       30.02R

STATION/POSITION SKY/WX   TEMP    WIND        PRES    WAVE   SWELL
                          AIR SEA DIR/SP/G            HT/PER HT/PER
                          (F)     (DEG/KT/KT) (MB)    (FT/S) (FT/S)
27.3N   84.2W                 86                N/A     2/ 5
CLEARWATER BEACH           82 86  360/  9/ 11 1016.2R
MIDDLE TAMPA BAY                  270/  2/  2 1016.4R
VENICE                     82 88  120/  3/  4 1016.1R

$$
FLZ066-069-070-075>078-162-262-165-265-010300-
SOUTHWEST FLORIDA AND KEYS

CITY           SKY/WX    TMP DP  RH WIND       PRES   REMARKS
PUNTA GORDA    CLEAR     76  71  85 S5        30.02F
FT MYERS       LGT RAIN  75  74  96 CALM      30.00F
SOUTHWEST INTL CLOUDY    79  70  74 SE7       30.01F
NAPLES         PTCLDY    77  72  84 NE5       30.02R
MARATHON       TSTM      73  72  96 W3        30.05F
KEY WEST NAS   LGT RAIN  77  72  84 E10       30.03R
KEY WEST INTL  LGT RAIN  77  74  90 E8        30.03S

STATION/POSITION SKY/WX   TEMP    WIND        PRES    WAVE   SWELL
                          AIR SEA DIR/SP/G            HT/PER HT/PER
                          (F)     (DEG/KT/KT) (MB)    (FT/S) (FT/S)
NAPLES                        89              1016.3R
26.0N   85.6W              83 85   60/  6/  8 1016.0R   1/ 5   2/ 5
DRY TORTUGAS               83     130/ 24/ 26 1016.6R
SAND KEY                   79      80/ 15/ 17 1017.2R
LONG KEY                   78 88  220/ 16/ 17 1017.5R
MOLASSES REEF              84 86   40/  4/  5 1016.7R

$$
FLZ067-068-071>074-168-172>174-010300-
SOUTHEAST FLORIDA

CITY           SKY/WX    TMP DP  RH WIND       PRES   REMARKS
W PALM BEACH   CLOUDY    75  71  87 CALM      30.03R
BOCA RATON     PTCLDY    77  75  94 W5        30.02R
FT LAUDER-EXEC PTCLDY    76  74  93 NE5       30.01S THUNDER
FT LAUDERDALE  CLOUDY    78  75  90 N5        30.00F
POMPANO BEACH    N/A     77  76  96 W3        30.01S
PEMBROKE PINES CLOUDY    76  73  91 CALM      30.01F
OPA LOCKA      CLOUDY    76  73  91 CALM      30.01S
MIAMI          MOCLDY    78  71  79 CALM      30.01F
WEST KENDALL   CLOUDY    76  70  82 N5        30.01F
HOMESTEAD      MOCLDY    77  73  88 SE1       30.01S

STATION/POSITION SKY/WX   TEMP    WIND        PRES    WAVE   SWELL
                          AIR SEA DIR/SP/G            HT/PER HT/PER
                          (F)     (DEG/KT/KT) (MB)    (FT/S) (FT/S)
PORT EVERGLADES            78     260/  3/  4 1016.0F
VIRGINIA KEY               80 89  290/  2/  3 1016.7R
LAKE WORTH                        140/  6/  7   N/A
FOWEY ROCKS                83 85   60/  3/  4 1016.8R
SETTLEMENT POINT           84     120/  6/  7 1017.6R

$$





USA.gov is the U.S. government's official web portal to all federal, state and local government web resources and services.